STARLINK-4530 (53393 NORAD) Tracking and Keplerian Element Data

This shows tracking and keplerian element data for the satellite.

Feedback or suggestion? Click here.




ElementValue
Catalog53393
NameSTARLINK-4530
Epoch Orbit788
Epoch Day270.25001157
Epoch Year2022
RAAN17.9674
Inclination53.2181
Eccentricity0.000173
Argument of Perigee50.5574
Mean Anonmoly112.7439
Mean Motion15.08815209
Decay Rate0.00040599
L11 53393U 22097F 22270.25001157 .00040599 00000+0 25561-2 0 9994
L22 53393 53.2181 17.9674 0001730 50.5574 112.7439 15.08815209 7885

Live tracking and technical data element details for STARLINK-4530 (NORAD 53393). STARLINK-4530 can be tracked NOW for your location showing map with azimuth and elevation plus other details from your city location.

Track the satellite on the map from your city or location and see movement details for azimuth, elevation, latitude, longitude, range, height, and movement on the map or in text.







IsCatalogInMostPopularTable: catalog: 53393, numindb: 4
Update: records affected: 1



GetName: 53393 STARLINK-4530

Hit Count: updated at: Thu, 29 Sep 2022 11:13:28 GMT